Location: Rounton
(54.4000°N, 1.3500°W)
Time: 22:49:17
(UTC+00:00)

Explorer 7 - Pass Details

Date: 02 December 2021
Orbit: 483 x 674 km, 50.3° (Epoch: 17 January)

Event Time Altitude Azimuth Distance (km) Brightness Sun altitude
Rises 11:43:47 0° 275° (W) 2,627 10.2 13.5°
Reaches altitude 10° 11:46:26 10° 258° (WSW) 1,711 9.5 13.6°
Maximum altitude 11:49:17 20° 210° (SSW) 1,189 9.7 13.6°
Drops below altitude 10° 11:52:05 10° 162° (SSE) 1,667 11.1 13.6°
Sets 11:54:37 0° 145° (SE) 2,537 11.2 13.6°
